FOX-1A (AO-85)

Last updated on Fri Jul 11 2025 00:03:04 GMT+0000 (Coordinated Universal Time)

1 40967U 15058D 25191.57982893 .00002026 00000+0 18991-3 0 9994 2 40967 64.7754 258.4918 0156606 185.3822 174.5614 14.88245005 62688
UTC large
Height (km)
Speed (km/s)
/
Latitude / Longitude
Inclination (degrees)
Orbital Period (minutes)
Azimuth
Elevation
Range (km)
Doppler Factor

Next 0 passes for location: London (51.5072 / 0.1276)

Sorry there are no passes over London.